Terug naar catalogus

COSMOS 1217

ActiefNavigatieHEO
NORAD 12032·PAYLOAD·🇷🇺 Russia

Gelanceerd Oct 24, 1980 vanaf Plesetsk Cosmodrome

Loading…

Volgende Passages (komende 24 uur)

TLE

VersSource: Space-Track

Epoch: Sep 10, 2026, 18:09 UTC

1 12032U 80085A   26253.75691224 -.00000700  00000-0  00000-0 0  9991
2 12032  70.1610 173.4846 5784669 236.3397  54.9235  2.00996154283935

Volg COSMOS 1217 in realtime met AllMySat

Download on the App Store